Location: Zagreb
(45.8000°N, 16.0000°E)
Time: 19:24:53
(UTC+02:00)

A-11 Canister half - Pass Details

Date: 13 August 2022
Orbit: 1524 x 1684 km, 47.3° (Epoch: 05 October)

Event Time Altitude Azimuth Distance (km) Brightness Sun altitude
Rises 03:48:43 0° 186° (S) 4,869 - -18.6°
Exits shadow 03:51:30 - 177° (S) 4,193 10.9 -18.3°
Reaches altitude 10° 03:52:49 10° 172° (S) 3,906 10.8 -18.1°
Maximum altitude 03:59:46 22° 127° (SE) 3,108 10.7 -17.3°
Drops below altitude 10° 04:06:46 10° 83° (E) 3,950 12.0 -16.4°
Sets 04:10:54 0° 69° (ENE) 4,940 13.0 -15.9°
